www.pogodaiklimat.ru

Погода и климат >> Архив погоды >> Канада >> Нунавут >> Шеперд-Бей


ПОГОДА в Шеперд-Бее

  • Прогноз погоды в Шеперд-Бее
  • Монитор погоды в Шеперд-Бее

АРХИВ ПОГОДЫ в Шеперд-Бее

Время (UTC), дата Ветер
(напр.,м/с)
 
Видим.   Явления Облачность Т
(С)
Тd
(С)
f
(%)
Тe
(С)
Тes
(С)
Комфортность P
(гПа)
Po
(гПа)
Тmin
(С)
Tmax
(С)
R
(мм)
R24
(мм)
S
(см)
06 19.06 СЗ 5 н/о ясно +0.3 -0.1 97 -6 -6 1014.2 1008.7 +0.3 +6.9
09 19.06 СЗ 4 н/о ясно +0.1 -0.3 97 -5 -5 1015.3 1009.8
12 19.06 З 3 н/о 5/0
[]
+1.8 -0.1 87 -3 -1 1016.0 1010.5
15 19.06 ЮЗ 3 н/о 10/10 600 м
[]
+3.9 +0.1 76 +1 +1 1016.5 1011.0
18 19.06 З 3 н/о 10/10 600 м
[]
+3.7 +1.0 83 -0 -0 1016.4 1010.9
21 19.06 ЮЗ 3 н/о 10/10 600 м
[]
+4.2 +1.4 82 +1 +1 1016.7 1011.2
00 20.06 З 3 н/о 10/10 600 м
[]
+4.2 +1.3 81 +1 +1 1016.8 1011.3
03 20.06 ЮЗ 3 н/о 10/0 2000 м
[]
+4.2 +1.9 85 0 +1 1016.5 1011.0
06 20.06 ЮЗ 3 н/о 10/10 1500 м
[]
+3.4 +1.6 88 -1 -1 1016.2 1010.7 -0.1 +5.1
09 20.06 ЮЗ 4 н/о 10/10 1500 м
[]
+3.0 +1.2 88 -2 -2 1015.9 1010.4
12 20.06 З 4 н/о 10/10 600 м
[]
+2.3 +1.7 96 -3 -3 1016.3 1010.8
15 20.06 СЗ 6 н/о 10/10 100 м
[]
+2.7 +2.1 96 -3 -3 1016.8 1011.3
18 20.06 СЗ 5 н/о 10/10 50 м
[]
+1.7 +1.2 96 -4 -4 1017.5 1012.0
21 20.06 СЗ 5 н/о 10/10 200 м
[]
+3.6 +2.8 94 -2 -2 1018.4 1012.9
00 21.06 СВ 5 н/о 10/10 300 м
[]
+5.4 +2.6 82 +1 +1 1019.2 1013.7
03 21.06 СВ 5 н/о ясно +4.6 +0.1 73 -0 0 1020.4 1014.9
06 21.06 В 4 н/о ясно +1.5 -0.4 87 -4 -4 1021.8 1016.2 +1.2 +5.9
09 21.06 ЮВ 1 н/о ясно +1.9 -1.5 78 0 +1 1022.6 1017.0
12 21.06 З 3 н/о 10/10 600 м
[]
+2.5 -0.6 80 -1 -1 1024.0 1018.5
15 21.06 СЗ 8 н/о 3/3 300 м
[]
+2.9 +0.9 87 -4 -3 1024.7 1019.1
18 21.06 СЗ 10 н/о 10/10 300 м
[]
+1.9 +0.1 88 -6 -6 1025.4 1019.8
21 21.06 СЗ 8 н/о 10/10 200 м
[]
+2.4 +1.1 91 -4 -4 1025.8 1020.2
00 22.06 СЗ 7 н/о 10/10 300 м
[]
+3.3 +2.2 92 -3 -3 1025.6 1020.0
03 22.06 ЮЗ 4 н/о 10/10 300 м
[]
+2.2 +1.4 94 -3 -3 1024.9 1019.3
06 22.06 З 4 н/о 10/0 2000 м
[]
+1.4 +0.8 96 -4 -4 1023.5 1017.9 +0.1 +4.0
09 22.06 З 4 н/о ясно +1.1 +0.6 96 -4 -4 1022.9 1017.3
12 22.06 З 4 н/о 3/0 2000 м
[]
+1.4 +0.4 93 -4 -2 1022.4 1016.8
15 22.06 З 6 н/о ясно +3.6 +1.5 86 -2 +2 1021.3 1015.8
18 22.06 З 6 н/о ясно +5.7 +2.6 80 +1 +5 1019.8 1014.3
21 22.06 З 6 н/о 9/0
[]
+7.6 +3.9 77 +3 +5 1018.6 1013.1
00 23.06 З 4 н/о ясно +5.6 +2.9 83 +2 +4 1018.1 1012.6
03 23.06 ЮЗ 3 н/о 10/0
[]
+4.4 +2.1 85 +1 +1 1017.0 1011.5
06 23.06 З 3 н/о 10/0
[]
+3.8 +2.0 88 0 0 1016.2 1010.7 +0.7 +8.3
09 23.06 З 3 н/о 9/0
[]
+3.9 +2.3 89 0 +1 1015.2 1009.7
12 23.06 ЮЗ 3 н/о ясно +5.1 +2.7 84 +2 +4 1014.2 1008.7
15 23.06 ЮЗ 6 н/о 9/0
[]
+7.2 +3.8 79 +3 +4 1013.1 1007.6
18 23.06 ЮЗ 8 н/о 10/10 1500 м
[]
+9.2 +5.6 78 +5 +5 1011.9 1006.4
21 23.06 ЮЗ 6 н/о 10/10 1500 м
[]
+12.5 +5.9 64 +10 +10 1011.0 1005.6
00 24.06 ЮЗ 5 н/о 9/9 1500 м
[]
+10.3 +5.3 71 +8 +8 1010.5 1005.1
03 24.06 З 3 н/о 10/10 1500 м
[]
+7.5 +3.6 76 +5 +5 1010.4 1005.0
06 24.06 З 2 н/о 10/10 600 м
[]
+6.8 +6.0 95 +4 +4 1010.0 1004.6 +3.4 +13.0
09 24.06 ЮЗ 2 н/о 10/10 1000 м
[]
+5.0 +4.1 94 +2 +2 1010.5 1005.1
12 24.06 С 2 н/о 10/0 2000 м
[]
+5.2 +5.0 99 +3 +4 1011.1 1005.7
15 24.06 С 4 н/о 10/0 2000 м
[]
+6.8 +5.1 89 +3 +6 1011.6 1006.2
18 24.06 СВ 4 н/о 10/10 300 м
[]
+8.7 +5.8 82 +6 +6 1012.3 1006.9
21 24.06 СВ 5 н/о 10/0 2000 м
[]
+9.7 +6.2 79 +7 +9 1013.3 1007.8
00 25.06 В 7 н/о 9/9 1500 м
[]
+9.2 +5.0 75 +5 +5 1014.0 1008.5
03 25.06 В 8 н/о 9/9 600 м
[]
+6.8 +3.7 81 +2 +2 1014.8 1009.3
06 25.06 В 8 н/о 10/10 600 м
[]
+4.6 +1.8 82 -1 -1 1015.4 1009.9 +3.8 +10.2
09 25.06 В 5 н/о 3/3 600 м
[]
+3.1 +1.5 89 -2 -2 1016.0 1010.5
12 25.06 В 5 н/о ясно +7.2 +4.0 80 +3 +5 1016.5 1011.0
15 25.06 ЮВ 4 н/о ясно +11.4 +6.5 72 +9 +15 1016.8 1011.3
18 25.06 З 3 н/о ясно +12.9 +7.5 70 +12 +22 1017.5 1012.0
21 25.06 СЗ 3 н/о ясно +14.2 +4.5 52 +14 +21 1018.2 1012.7
00 26.06 СЗ 2 н/о ясно +15.2 +3.8 46 +15 +18 1018.3 1012.9
03 26.06 С 1 н/о ясно +14.9 +7.7 62 +15 +16 1018.8 1013.4

 

Местоположение метеостанции Шеперд-Бей (Нунавут, Канада): широта 68.82 долгота -93.43 высота над уровнем моря 42 м.

В архиве по умолчанию представлена погода в Шеперд-Бее за последнюю неделю. Архивные данные за месяц целиком и за предыдущие месяцы, начиная с января 2011 года, Вы можете получить, выбрав интересующий диапазон дат из раскрывающегося списка и нажав кнопку "Ввод!".


*Определитесь, кто Вы:
робот инопланетянин человек

Внимание! Время в таблицах - всемирное. Для получения местного времени необходимо прибавить поправку, которая равна -6 ч.

Смотрите также архив погоды в соседних городах и на ближайших метеорологических станциях:

Погода в Талойоаке (Нунавут, Канада) (81 км)
Погода в Джойа Хейвен (Нунавут, Канада) (100 км)
Погода в Кугааруке (Нунавут, Канада) (150 км)
Погода в Кам Фор (Нунавут, Канада) (157 км)
Погода на Острове Хат (Нунавут, Канада) (273 км)
Погода в Глеичене (Альберта, Канада) (332 км)
Погода в Вейджер Бэй (Нунавут, Канада) (369 км)
Погода в Кеймбридж-Бее (Нунавут, Канада) (466 км)
Погода в Кембридж Бэй (Нунавут, Канада) (466 км)
Погода в Холл Бич (Нунавут, Канада) (489 км)

Пояснения к столбцам:

Ветер - указаны скорость ветра в м/с - средняя за 10 мин, порывы в срок и между сроками (в фигурных скобках) и направление, откуда дует ветер: С - северный, СВ - северо-восточный, В - восточный, ЮВ - юго-восточный, Ю - южный, ЮЗ - юго-западный, З - западный, СЗ - северо-западный.
Видимость - горизонтальная дальность видимости в метрах или километрах. При видимости от 1 до 10 км при отсутствии осадков обычно наблюдается дымка, при ухудшении видимости до 1 км и менее - туман. В сухую погоду видимость может ухудшаться дымом, пылью или мглою.
Явления - указаны атмосферные явления, наблюдавшиеся в срок или в последний час перед сроком; фигурными скобками обозначены явления, наблюдавшиеся между сроками (за 1-3 часа до срока); квадратными скобками обозначены град или гололедные отложения с указанием их диаметра в мм.
Облачность - указаны через наклонную черту общая и нижняя облачность в баллах и высота нижней границы облаков в метрах; квадратными скобками обозначены формы облаков: Ci - перистые, Cs - перисто-слоистые, Cc - перисто-кучевые, Ac - высококучевые, As - высокослоистые, Sc - слоисто-кучевые, Ns - слоисто-дождевые, Cu - кучевые, Cb - кучево-дождевые. Подробнее классификацию облаков см. в Атласе облаков (PDF).
T - Температура воздуха - температура, измеренная на высоте 2 м над землей.
Td - Температура точки росы - температура, при понижении до которой содержащийся в воздухе водяной пар достигнет насыщения.
f - Относительная влажность воздуха - влажноcть воздуха, измеренная на высоте 2 м над землей.
Te - Эффективная температура - температура, которую ощущает одетый по сезону человек в тени. Характеристика душности погоды. При расчете учитывается влияние влажности воздуха и скорости ветра на теплоощущения человека.
Tes - Эффективная температура на солнце - температура, которую ощущает человек, с поправкой на солнечный нагрев. Характеристика знойности погоды. Зависит от высоты солнца над горизонтом, облачности и скорости ветра. Ночью, в пасмурную погоду, а также при ветре 12 м/с и более поправка равна нулю.
P - Атмосферное давление - приведенное к уровню моря атмосферное давление.
Po - Атмосферное давление - измеренное на уровне метеостанции атмосферное давление.
Tmin - Минимальная температура - минимум температуры воздуха на высоте 2 м над землей.
Tmax - Максимальная температура - максимум температуры воздуха на высоте 2 м над землей.
R - Количество осадков - Количество выпавших осадков за период времени, мм. При наведении курсора мыши на число - период времени, за который выпало указанное количество осадков.
R24 - Количество осадков - Количество выпавших осадков за 24 часа, мм.
S - Снежный покров - Высота снежного покрова, см. При наведении курсора мыши на число - состояние снежного покрова и степень покрытия местности в баллах.